Flag for Germany Weather past 2 weeks in Ilmenau, Thuringia, Germany

Now
34 °F

Broken clouds.


Feels Like: 22 °F
Forecast: 30 / 33 °F
Wind: 23 mph from West

Location: Erfurt-Bindersleben

Current Time: Apr 1, 2015 at 8:01:02 PM

Latest Report: Apr 1, 2015 at 7:20 PM


Visibility: N/A

Pressure: 29.95 "Hg

Humidity: 93%

Dew point: 32 °F

Location of IlmenauLocation

Historic Weather in Ilmenau — Graph

°F

Ilmenau temperature yesterday

Maximum temperature yesterday: 52 °F (at 9:20 AM)
Minimum temperature yesterday: 34 °F (at 4:20 AM)
Average temperature yesterday: 43 °F

Past Weeks' High & Low Weather Summary

 TemperatureHumidityPressure
High63 °F (Mar 25, 3:50 PM)100% (Mar 18, 5:50 AM)30.30 "Hg (Mar 18, 5:50 AM)
Low27 °F (Mar 20, 5:50 AM)30% (Mar 20, 2:50 PM)29.15 "Hg (Mar 31, 9:20 AM)
Average41 °F78%29.90 "Hg
* Reported Mar 17 5:20 PM — Apr 1 6:50 PM, Ilmenau, Weather by CustomWeather, © 2015

Note: Actual official high and low records may vary slightly from our data, if they occured in-between our weather recording intervals... More about our weather records

Advertising

Ilmenau weather history for previous 24 hours

 ConditionsComfort  
Time TempWeatherWind HumidityBarometerVisibility
6:50 PM
Wed, Apr 1
36 °FPartly sunny.25 mph87%29.92 "HgN/A
6:20 PM34 °FSnow flurries. Broken clouds.16 mph100%29.92 "HgN/A
5:50 PM36 °FSprinkles. Partly sunny.21 mph93%29.92 "HgN/A
5:20 PM34 °FPartly sunny.14 mph100%29.92 "HgN/A
4:50 PM34 °FSnow showers. Broken clouds.17 mph100%29.92 "Hg1 mi
4:20 PM34 °FThunderstorms. Broken clouds.21 mph93%29.92 "Hg1 mi
3:50 PM39 °FSnow flurries. Broken clouds.13 mph81%29.92 "HgN/A
3:20 PM43 °FScattered showers. Broken clouds.24 mph57%29.89 "HgN/A
2:50 PM43 °FBroken clouds.30 mph57%29.89 "HgN/A
2:20 PM43 °FScattered clouds.30 mph61%29.89 "HgN/A
1:50 PM43 °FScattered clouds.23 mph71%29.89 "HgN/A
1:20 PM41 °FScattered clouds.24 mph76%29.92 "HgN/A
12:50 PM41 °FScattered clouds.29 mph76%29.89 "HgN/A
12:20 PM39 °FPassing clouds.26 mph81%29.89 "HgN/A
11:50 AM39 °FScattered clouds.26 mph81%29.89 "HgN/A
11:20 AM37 °FSprinkles. Broken clouds.26 mph87%29.86 "HgN/A
10:50 AM36 °FSprinkles. Partly sunny.25 mph93%29.86 "HgN/A
10:20 AM37 °FScattered clouds.28 mph81%29.83 "HgN/A
9:50 AM36 °FScattered clouds.25 mph87%29.83 "HgN/A
9:20 AM36 °FScattered clouds.25 mph87%29.80 "HgN/A
8:50 AM34 °FPassing clouds.25 mph93%29.80 "HgN/A
8:20 AM32 °FBroken clouds.18 mph100%29.77 "HgN/A
7:50 AM34 °FSnow showers. Passing clouds.21 mph93%29.77 "Hg1 mi
7:20 AM34 °FSnow flurries. Passing clouds.22 mph87%29.77 "HgN/A
6:50 AM34 °FPassing clouds.24 mph87%29.74 "HgN/A
6:20 AM36 °FSnow flurries. Passing clouds.15 mph81%29.74 "HgN/A
5:50 AM34 °FPassing clouds.21 mph87%29.71 "HgN/A
5:20 AM34 °FPassing clouds.17 mph87%29.71 "HgN/A
4:50 AM34 °FPassing clouds.14 mph93%29.71 "HgN/A
4:20 AM32 °FPassing clouds.12 mph100%29.71 "HgN/A
3:50 AM32 °FSnow showers. Passing clouds.24 mph100%29.71 "Hg1 mi
3:20 AM36 °FThunderstorms. Passing clouds.21 mph81%29.68 "HgN/A
2:50 AM36 °FPassing clouds.22 mph81%29.68 "HgN/A
2:20 AM36 °FSprinkles. Passing clouds.20 mph87%29.68 "HgN/A
1:50 AM37 °FSprinkles. Passing clouds.22 mph81%29.68 "HgN/A
1:20 AM36 °FPassing clouds.23 mph87%29.65 "HgN/A
12:50 AM36 °FClear.24 mph87%29.62 "Hg10 mi
12:20 AM36 °FPassing clouds.23 mph87%29.62 "HgN/A
11:50 PM
Tue, Mar 31
37 °FPassing clouds.22 mph81%29.65 "HgN/A
11:20 PM39 °FPassing clouds.21 mph81%29.65 "HgN/A
10:50 PM39 °FPassing clouds.23 mph81%29.62 "HgN/A
10:20 PM37 °FPassing clouds.22 mph87%29.65 "HgN/A
9:50 PM36 °FPassing clouds.23 mph93%29.65 "HgN/A
9:20 PM37 °FRain showers. Passing clouds.39 mph87%29.65 "Hg1 mi
8:50 PM41 °FPassing clouds.21 mph61%29.59 "HgN/A
8:20 PM41 °FPassing clouds.16 mph70%29.59 "HgN/A
Weather by CustomWeather, © 2015

See weather overviewHow to use our weather pages